STARLINK-3998 (52610 NORAD) Tracking and Keplerian Element Data
This shows tracking and keplerian element data for the satellite.
Feedback or suggestion? Click here.
Element | Value |
Catalog | 52610 |
Name | STARLINK-3998 |
Epoch Orbit | 130 |
Epoch Day | 192.91667824 |
Epoch Year | 2022 |
RAAN | 165.1272 |
Inclination | 53.213 |
Eccentricity | 0.0002055 |
Argument of Perigee | 57.5011 |
Mean Anonmoly | 56.4511 |
Mean Motion | 15.08862178 |
Decay Rate | -0.00024234 |
L1 | 1 52610U 22052N 22192.91667824 -.00024234 00000+0 -15087-2 0 9993 |
L2 | 2 52610 53.2130 165.1272 0002055 57.5011 56.4511 15.08862178 1307 |
Live tracking and technical data element details for STARLINK-3998 (NORAD 52610). STARLINK-3998 can be tracked NOW for your location showing map with azimuth and elevation plus other details from your city location.
Track the satellite on the map from your city or location and see movement details for azimuth, elevation, latitude, longitude, range, height, and movement on the map or in text.
IsCatalogInMostPopularTable: catalog: 52610, numindb: 8
Update: records affected: 1
GetName: 52610 STARLINK-3998
Hit Count: updated at: Sun, 14 Aug 2022 01:17:16 GMT